Location: The Saddle
(36.8333°N, 80.3417°W)
Time: 11:05:03
(UTC-05:00)

A-11 Canister half - Pass Details

Date: 15 December 2023
Orbit: 1526 x 1682 km, 47.3° (Epoch: 22 February)

Event Time Altitude Azimuth Distance (km) Brightness Sun altitude
Rises 19:30:45 0° 284° (WNW) 4,925 12.7 -28.1°
Reaches altitude 10° 19:34:08 10° 290° (WNW) 3,943 11.9 -28.7°
Maximum altitude 19:43:49 46° 2° (N) 2,135 9.6 -30.7°
Enters shadow 19:45:44 43° 30° (NNE) 2,231 9.5 -31.0°
Drops below altitude 10° 19:53:24 10° 74° (ENE) 3,905 - -32.6°
Sets 19:56:45 0° 81° (E) 4,874 - -33.2°
